Radioactive Concentration measured by Seawater Radiation Monitor near Fukushima Daiichi Nuclear Power Station
Date,Time,Cs137(Bq/L),Cs134(Bq/L),Total β(Bq/L)
2019/02/17,00:00,0.49,ND,13
2019/02/17,00:10,0.48,ND,11
2019/02/17,00:20,0.48,ND,9.5
2019/02/17,00:30,0.48,ND,9.9
2019/02/17,00:40,0.53,ND,14
2019/02/17,00:50,0.51,ND,16
2019/02/17,01:00,0.50,ND,16
2019/02/17,01:10,0.48,ND,16
2019/02/17,01:20,0.48,ND,19
2019/02/17,01:30,0.47,ND,22
2019/02/17,01:40,0.41,ND,19
2019/02/17,01:50,0.41,ND,18
2019/02/17,02:00,0.41,ND,20
2019/02/17,02:10,0.41,ND,20
2019/02/17,02:20,0.38,ND,20
2019/02/17,02:30,0.39,ND,18
2019/02/17,02:40,0.39,ND,20
2019/02/17,02:50,0.39,ND,19
2019/02/17,03:00,0.38,ND,17
2019/02/17,03:10,0.43,ND,19
2019/02/17,03:20,0.41,ND,20
2019/02/17,03:30,0.44,ND,20
2019/02/17,03:40,0.44,ND,19
2019/02/17,03:50,0.39,ND,21
2019/02/17,04:00,0.38,ND,21
2019/02/17,04:10,0.37,ND,20
2019/02/17,04:20,0.36,ND,19
2019/02/17,04:30,0.34,ND,19
2019/02/17,04:40,0.35,ND,18
2019/02/17,04:50,0.38,ND,17
2019/02/17,05:00,0.39,ND,18
2019/02/17,05:10,0.35,ND,16
2019/02/17,05:20,0.36,ND,17
2019/02/17,05:30,0.36,ND,15
2019/02/17,05:40,0.34,ND,19
2019/02/17,05:50,0.34,ND,14
2019/02/17,06:00,0.33,ND,15
2019/02/17,06:10,0.31,ND,15
2019/02/17,06:20,0.35,ND,14
2019/02/17,06:30,0.37,ND,17
2019/02/17,06:40,0.37,ND,15
2019/02/17,06:50,0.30,ND,22
2019/02/17,07:00,0.38,ND,21
2019/02/17,07:10,0.40,ND,23
2019/02/17,07:20,0.42,ND,23
2019/02/17,07:30,0.38,ND,24
2019/02/17,07:40,0.39,ND,24
2019/02/17,07:50,0.40,ND,19
2019/02/17,08:00,0.40,ND,19
2019/02/17,08:10,0.39,ND,18
2019/02/17,08:20,0.39,ND,17
2019/02/17,08:30,0.38,ND,16
2019/02/17,08:40,0.40,ND,14
2019/02/17,08:50,0.40,ND,17
2019/02/17,09:00,0.41,ND,17
2019/02/17,09:10,0.41,ND,17
2019/02/17,09:20,0.40,ND,18
2019/02/17,09:30,0.42,ND,18
2019/02/17,09:40,0.41,ND,20
2019/02/17,09:50,0.41,ND,18
2019/02/17,10:00,0.39,ND,18
2019/02/17,10:10,0.41,ND,18
2019/02/17,10:20,0.42,ND,17
2019/02/17,10:30,0.46,ND,16
2019/02/17,10:40,0.47,ND,17
2019/02/17,10:50,0.43,ND,16
2019/02/17,11:00,0.48,ND,16
2019/02/17,11:10,0.43,ND,17
2019/02/17,11:20,0.40,ND,18
2019/02/17,11:30,0.39,ND,19
2019/02/17,11:40,0.37,ND,19
2019/02/17,11:50,0.36,ND,20
2019/02/17,12:00,0.34,ND,20
2019/02/17,12:10,0.34,ND,19
2019/02/17,12:20,0.33,ND,19
2019/02/17,12:30,0.34,ND,16
2019/02/17,12:40,0.32,ND,17
2019/02/17,12:50,0.30,ND,17
2019/02/17,13:00,0.34,ND,16
2019/02/17,13:10,0.31,ND,16
2019/02/17,13:20,0.32,ND,18
2019/02/17,13:30,0.30,ND,20
2019/02/17,13:40,0.30,ND,18
2019/02/17,13:50,0.31,ND,18
2019/02/17,14:00,0.30,ND,18
2019/02/17,14:10,0.29,ND,17
2019/02/17,14:20,0.29,ND,18
2019/02/17,14:30,0.35,ND,14
2019/02/17,14:40,0.35,ND,14
2019/02/17,14:50,0.36,ND,16
2019/02/17,15:00,0.39,ND,17
2019/02/17,15:10,0.41,ND,19
2019/02/17,15:20,0.44,ND,16
2019/02/17,15:30,0.48,ND,19
2019/02/17,15:40,0.54,ND,22
2019/02/17,15:50,0.63,ND,22
2019/02/17,16:00,0.68,ND,20
2019/02/17,16:10,0.75,ND,19
2019/02/17,16:20,0.82,ND,19
2019/02/17,16:30,0.89,ND,18
2019/02/17,16:40,0.91,ND,16
2019/02/17,16:50,0.93,ND,15
2019/02/17,17:00,0.96,ND,17
2019/02/17,17:10,0.92,ND,17
2019/02/17,17:20,0.90,ND,17
2019/02/17,17:30,0.90,ND,18
2019/02/17,17:40,0.85,0.026,17
2019/02/17,17:50,0.81,0.036,18
2019/02/17,18:00,0.77,0.040,18
2019/02/17,18:10,0.86,ND,18
2019/02/17,18:20,0.82,ND,19
2019/02/17,18:30,0.81,ND,17
2019/02/17,18:40,0.81,ND,19
2019/02/17,18:50,0.81,ND,18
2019/02/17,19:00,0.82,ND,19
2019/02/17,19:10,0.82,ND,20
2019/02/17,19:20,0.80,ND,19
2019/02/17,19:30,0.81,ND,20
2019/02/17,19:40,0.82,ND,18
2019/02/17,19:50,0.84,ND,18
2019/02/17,20:00,0.85,ND,17
2019/02/17,20:10,0.86,ND,16
2019/02/17,20:20,0.82,0.044,14
2019/02/17,20:30,0.84,0.041,13
2019/02/17,20:40,0.84,0.042,13
2019/02/17,20:50,0.82,0.042,13
2019/02/17,21:00,0.96,ND,13
2019/02/17,21:10,0.96,ND,12
2019/02/17,21:20,0.93,ND,15
2019/02/17,21:30,0.93,ND,15
2019/02/17,21:40,0.92,ND,14
2019/02/17,21:50,0.90,ND,14
2019/02/17,22:00,0.82,ND,13
2019/02/17,22:10,0.79,ND,14
2019/02/17,22:20,0.76,ND,14
2019/02/17,22:30,0.72,ND,15
2019/02/17,22:40,0.69,ND,17
2019/02/17,22:50,0.65,ND,15
2019/02/17,23:00,0.61,ND,14
2019/02/17,23:10,0.58,ND,15
2019/02/17,23:20,0.54,ND,16
2019/02/17,23:30,0.55,ND,15
2019/02/17,23:40,0.53,ND,17
2019/02/17,23:50,0.52,ND,16
